This is the latest recevied weather packets stored in our database for station/object KD4PMP. If no packets are shown the sender has not sent any weather packets the latest 10 day(s).
| Time | Temp. | Humidity | Pressure | Rain* | Wind** | Luminosity | Snow |
|---|---|---|---|---|---|---|---|
| 1777743599 | 18.33° C | 44% | 1016.1 hPa | 0 mm | - | - | - |
| 1777742999 | 17.78° C | 43% | 1016 hPa | 0 mm | - | - | - |
| 1777742399 | 18.33° C | 44% | 1016.1 hPa | 0 mm | - | - | - |
| 1777741798 | 17.78° C | 44% | 1016.2 hPa | 0 mm | - | - | - |
| 1777741198 | 17.78° C | 46% | 1016.2 hPa | 0 mm | - | - | - |
| 1777740598 | 17.78° C | 46% | 1016.4 hPa | 0 mm | - | - | - |
| 1777739997 | 18.33° C | 44% | 1016.6 hPa | 0 mm | - | - | - |
| 1777739397 | 18.33° C | 47% | 1016.7 hPa | 0 mm | - | - | - |
| 1777738797 | 17.78° C | 46% | 1016.9 hPa | 0 mm | - | - | - |
| 1777738197 | 17.78° C | 46% | 1016.8 hPa | 0 mm | - | - | - |
| 1777737597 | 17.22° C | 48% | 1016.9 hPa | 0 mm | - | - | - |
| 1777736996 | 17.22° C | 49% | 1017 hPa | 0 mm | - | - | - |
| 1777736396 | 17.22° C | 47% | 1017 hPa | 0 mm | - | - | - |
| 1777735795 | 17.22° C | 51% | 1016.9 hPa | 0 mm | - | - | - |
| 1777735196 | 16.67° C | 52% | 1016.9 hPa | 0 mm | - | - | - |
| 1777734595 | 16.67° C | 50% | 1016.9 hPa | 0 mm | - | - | - |
| 1777733995 | 16.11° C | 51% | 1016.9 hPa | 0 mm | - | - | - |
| 1777733394 | 16.11° C | 52% | 1016.9 hPa | 0 mm | - | - | - |
| 1777732824 | 16.11° C | 54% | 1016.8 hPa | 0 mm | - | - | - |
| 1777732194 | 15.56° C | 59% | 1016.7 hPa | 0 mm | - | - | - |
| 1777731594 | 15° C | 58% | 1016.6 hPa | 0 mm | - | - | - |
| 1777731023 | 15° C | 55% | 1016.7 hPa | 0 mm | - | - | - |
| 1777730423 | 15° C | 59% | 1016.8 hPa | 0 mm | - | - | - |
| 1777729793 | 14.44° C | 58% | 1016.8 hPa | 0 mm | - | - | - |
| 1777729192 | 13.89° C | 61% | 1016.8 hPa | 0 mm | - | - | - |
* Rain latest hour (hover to see other rain measurements)
** Current wind speed in m/s (hover to see current wind gust speed)